Zurück zum Katalog

STARLINK-4686

AktivKommunikationVLEO
NORAD 53715·PAYLOAD·🇺🇸 United States

Gestartet Sep 5, 2022 von Cape Canaveral Space Force Station

Loading…

Nächste Überflüge (nächste 24 Stunden)

TLE

AktuellSource: CelesTrak SupGP

Epoche: Sep 14, 2026, 21:08 UTC

1 53715C 22107R   26257.88104167 -.00012796  00000+0 -37821-3 0  2577
2 53715  53.1573 110.2761 0001351  87.8075 258.3406 15.34384804    19

Verfolge STARLINK-4686 in Echtzeit mit AllMySat

Download on the App Store